This demonstration page uses our WeatherBlox Daily Observations layout. Learn more.

Hourly Observations for March 16, 2016

Temp ( °F °C ) Dew Point ( °F °C ) Humidity (%) Winds ( mph kmh ) Pressure ( in mb ) Visibility ( mi km ) Precip ( " mm )
12:15 am 00:15 Clear 46 8 46 8 100 100 Calm 29.91 1013 10 16.09344 0 0
12:35 am 00:35 Clear 46 8 46 8 100 100 Calm 29.88 1012 10 16.09344 0 0
12:55 am 00:55 Clear 46 8 46 8 100 100 Calm 29.88 1012 10 16.09344 0 0
1:15 am 01:15 Clear 48 9 48 9 100 100 Calm 29.85 1011 10 16.09344 0 0
1:35 am 01:35 Clear with Mist and Fog 48 9 48 9 100 100 Calm 29.85 1011 5 8.04672 0 0
1:55 am 01:55 Clear with Mist and Fog 46 8 46 8 100 100 Calm 29.88 1012 5 8.04672 0 0
2:15 am 02:15 Clear 45 7 45 7 100 100 Calm 29.88 1012 10 16.09344 0 0
2:35 am 02:35 Cloudy with Fog 45 7 45 7 100 100 Calm 29.88 1012 0.5 0.804672 0 0
2:55 am 02:55 Cloudy with Fog 45 7 45 7 100 100 Calm 29.88 1012 0.5 0.804672 0 0
3:15 am 03:15 Cloudy with Mist and Fog 45 7 45 7 100 100 Calm 29.88 1012 1 1.609344 0 0
3:35 am 03:35 Cloudy with Mist and Fog 45 7 45 7 100 100 Calm 29.85 1011 0.75 1.207008 0 0
3:55 am 03:55 Cloudy with Mist and Fog 45 7 45 7 100 100 Calm 29.85 1011 0.75 1.207008 0 0
4:15 am 04:15 Cloudy with Fog 43 6 43 6 100 100 Calm 29.85 1011 0.5 0.804672 0 0
4:35 am 04:35 Cloudy with Fog 45 7 45 7 100 100 Calm 29.85 1011 0.25 0.402336 0 0
4:55 am 04:55 Cloudy with Fog 45 7 45 7 100 100 Calm 29.85 1011 0.25 0.402336 0 0
5:15 am 05:15 Cloudy with Fog 45 7 45 7 100 100 Calm 29.85 1011 0.25 0.402336 0 0
5:35 am 05:35 Cloudy with Fog 45 7 45 7 100 100 Calm 29.85 1011 0.25 0.402336 0 0
5:55 am 05:55 Cloudy with Fog 45 7 45 7 100 100 Calm 29.85 1011 0.5 0.804672 0 0
6:15 am 06:15 Cloudy with Mist and Fog 45 7 45 7 100 100 Calm 29.85 1011 1 1.609344 0 0
6:35 am 06:35 Cloudy with Fog 45 7 45 7 100 100 Calm 29.85 1011 0.5 0.804672 0 0
6:55 am 06:55 Cloudy with Fog 45 7 45 7 100 100 Calm 29.85 1011 0.25 0.402336 0 0
7:15 am 07:15 Cloudy with Fog 45 7 45 7 100 100 undefined N/A 29.85 1011 0.5 0.804672 0 0
7:35 am 07:35 Cloudy with Fog 45 7 45 7 100 100 Calm 29.85 1011 0.25 0.402336 0 0
7:55 am 07:55 Cloudy with Fog 45 7 45 7 100 100 Calm 29.85 1011 0.25 0.402336 0 0
8:15 am 08:15 Cloudy with Fog 46 8 46 8 100 100 Calm 29.83 1010 0.25 0.402336 0 0
8:35 am 08:35 Cloudy with Mist and Fog 46 8 46 8 100 100 Calm 29.83 1010 1.5 2.414016 0 0
8:55 am 08:55 Partly Cloudy with Mist and Fog 48 9 48 9 100 100 Calm 29.83 1010 2.5 4.02336 0 0
9:15 am 09:15 Sunny with Mist and Fog 50 10 50 10 100 100 Calm 29.83 1010 5 8.04672 0 0
9:35 am 09:35 Sunny 52 11 52 11 100 100 Calm 29.83 1010 7 11.265408 0 0
9:55 am 09:55 Sunny 54 12 54 12 100 100 Calm 29.83 1010 10 16.09344 0 0
10:15 am 10:15 Sunny 55 13 55 13 100 100 Calm 29.8 1009 7 11.265408 0 0
10:35 am 10:35 Sunny 55 13 55 13 100 100 W 3 6 29.83 1010 10 16.09344 0 0
10:55 am 10:55 Sunny 59 15 59 15 100 100 SW 3 6 29.8 1009 10 16.09344 0 0
11:15 am 11:15 Sunny 63 17 57 14 83 83 Calm 29.8 1009 10 16.09344 0 0
11:35 am 11:35 Sunny 64 18 57 14 78 78 SSE 7 11 29.8 1009 10 16.09344 0 0
11:55 am 11:55 Sunny 68 20 59 15 73 73 S 12 19 29.77 1008 10 16.09344 0 0
12:15 pm 12:15 Sunny 70 21 57 14 64 64 SSE 9 15 29.77 1008 10 16.09344 0 0
12:35 pm 12:35 Sunny 72 22 57 14 61 61 SSE 9 15 29.77 1008 10 16.09344 0 0
12:55 pm 12:55 Sunny 72 22 57 14 61 61 S 10 17 29.77 1008 10 16.09344 0 0
1:15 pm 13:15 Sunny 73 23 59 15 61 61 S 10 17 29.74 1007 10 16.09344 0 0
1:35 pm 13:35 Sunny 72 22 57 14 61 61 S 7 11 29.74 1007 10 16.09344 0 0
1:55 pm 13:55 Partly Cloudy 73 23 57 14 57 57 S 10 17 29.74 1007 10 16.09344 0 0
2:15 pm 14:15 Cloudy 73 23 57 14 57 57 SSE 9 15 29.71 1006 10 16.09344 0 0
2:35 pm 14:35 Mostly Cloudy 73 23 57 14 57 57 S 9 15 29.71 1006 10 16.09344 0 0
2:55 pm 14:55 Partly Cloudy 73 23 57 14 57 57 S 8 13 29.71 1006 10 16.09344 0 0
3:15 pm 15:15 Sunny 73 23 57 14 57 57 S 9 15 29.71 1006 10 16.09344 0 0
3:35 pm 15:35 Sunny 73 23 57 14 57 57 SSE 8 13 29.71 1006 10 16.09344 0 0
3:55 pm 15:55 Partly Cloudy 73 23 57 14 57 57 S 9 15 29.71 1006 10 16.09344 0 0
4:15 pm 16:15 Partly Cloudy 73 23 59 15 61 61 WNW 5 7 29.71 1006 10 16.09344 0 0
4:35 pm 16:35 Mostly Cloudy 73 23 59 15 61 61 SW 6 9 29.71 1006 10 16.09344 0 0
4:55 pm 16:55 Partly Cloudy 75 24 59 15 57 57 S 6 9 29.71 1006 10 16.09344 0 0
5:20 pm 17:20 undefined N/A N/A N/A undefined N/A N/A N/A 0 0
5:35 pm 17:35 Sunny with Thunderstorms 77 25 59 15 54 54 ESE 5 7 29.71 1006 N/A 0.11 2.794
5:55 pm 17:55 Sunny 77 25 59 15 54 54 NNE 5 7 29.71 1006 10 16.09344 0.11 2.794
6:15 pm 18:15 Sunny 77 25 59 15 54 54 Calm 29.71 1006 10 16.09344 0 0
6:35 pm 18:35 Sunny 75 24 59 15 57 57 Calm 29.74 1007 10 16.09344 0 0
6:55 pm 18:55 Sunny 73 23 59 15 61 61 WNW 7 11 29.74 1007 10 16.09344 0 0
7:15 pm 19:15 Sunny 73 23 59 15 61 61 Calm 29.74 1007 10 16.09344 0 0
7:35 pm 19:35 Clear 70 21 59 15 69 69 ENE 5 7 29.74 1007 10 16.09344 0 0
7:55 pm 19:55 Clear 68 20 59 15 73 73 ENE 5 7 29.77 1008 10 16.09344 0 0
8:15 pm 20:15 Clear 68 20 57 14 69 69 E 3 6 29.77 1008 10 16.09344 0 0
8:35 pm 20:35 Clear 66 19 57 14 73 73 NW 5 7 29.77 1008 10 16.09344 0 0
8:55 pm 20:55 Clear 63 17 55 13 77 77 Calm 29.8 1009 10 16.09344 0 0
9:15 pm 21:15 Clear 61 16 55 13 83 83 Calm 29.8 1009 10 16.09344 0 0
9:35 pm 21:35 Clear 59 15 57 14 94 94 NNW 6 9 29.8 1009 10 16.09344 0 0
9:55 pm 21:55 Clear 64 18 41 5 43 43 NW 13 20 29.8 1009 10 16.09344 0 0
10:15 pm 22:15 Clear 68 20 36 2 30 30 NNW 14 22 29.8 1009 10 16.09344 0 0
10:35 pm 22:35 Clear 64 18 34 1 32 32 NW 15 24 29.8 1009 10 16.09344 0 0
10:55 pm 22:55 Clear 64 18 34 1 32 32 NW 17 28 29.8 1009 10 16.09344 0 0
11:15 pm 23:15 Clear 64 18 34 1 32 32 NW 16 26 29.83 1010 10 16.09344 0 0
11:35 pm 23:35 Clear 63 17 34 1 34 34 NW 18 30 29.83 1010 10 16.09344 0 0
11:55 pm 23:55 Clear 64 18 34 1 32 32 NW 14 22 29.83 1010 10 16.09344 0 0

Powered by AerisWeather